When you browse on this site, cookies collect data to enhance your experience and personalize the content and advertising you see.
Visit our Privacy Policy to learn more. By continuing to use the site, you agree to this use of cookies and data.
  • In Hungary
  • List of Countries
  • For 7 days
  • Water Temperature
  • Satellite Maps
  • Weather Map
  • News
  • Weather Widgets
  • user-avatar
    Login

    Hourly Weather Levittown

    Today, 23 February, Saturday

    Time Temperature Precipitation Wind Pressure Humidity
    00:00 +2°C° 0 mm 2 mps 772 mmHg 69%
    01:00 +2°C° 0 mm 1 mps 772 mmHg 69%
    02:00 +2°C° 0 mm 1 mps 772 mmHg 70%
    03:00 +2°C° 0 mm 1 mps 772 mmHg 71%
    04:00 +2°C° 0 mm 1 mps 772 mmHg 72%
    05:00 +1°C° 0 mm 1 mps 772 mmHg 74%
    06:00 +1°C° 0 mm 1 mps 772 mmHg 75%
    07:00 +1°C° 0 mm 1 mps 772 mmHg 77%
    08:00 +3°C° 0 mm 1 mps 772 mmHg 72%
    09:00 +3°C° 0 mm 2 mps 772 mmHg 66%
    10:00 +4°C° 0 mm 2 mps 772 mmHg 61%
    11:00 +5°C° 0 mm 2 mps 772 mmHg 58%
    12:00 +6°C° 0 mm 2 mps 772 mmHg 55%
    13:00 +7°C° 0 mm 2 mps 771 mmHg 52%
    14:00 +7°C° 0 mm 2 mps 771 mmHg 54%
    15:00 +7°C° 0 mm 2 mps 770 mmHg 56%
    16:00 +7°C° 0 mm 2 mps 769 mmHg 58%
    17:00 +5°C° 0 mm 3 mps 769 mmHg 62%
    18:00 +5°C° 0 mm 3 mps 769 mmHg 65%
    19:00 +4°C° 0 mm 3 mps 768 mmHg 68%
    20:00 +4°C° 0.1 mm 3 mps 767 mmHg 73%
    21:00 +5°C° 0.1 mm 2 mps 767 mmHg 77%
    22:00 +4°C° 0.1 mm 2 mps 766 mmHg 81%
    23:00 +5°C° 0.1 mm 2 mps 765 mmHg 84%

    Tomorrow, 24 February, Sunday

    Time Temperature Precipitation Wind Pressure Humidity
    00:00 +4°C° 0.1 mm 3 mps 764 mmHg 87%
    01:00 +4°C° 0.1 mm 3 mps 763 mmHg 90%
    02:00 +4°C° 0.6 mm 3 mps 762 mmHg 93%
    03:00 +6°C° 0.6 mm 2 mps 760 mmHg 95%
    04:00 +6°C° 0.6 mm 2 mps 759 mmHg 98%
    05:00 +7°C° 3.2 mm 2 mps 757 mmHg 98%
    06:00 +8°C° 3.2 mm 2 mps 756 mmHg 98%
    07:00 +9°C° 3.2 mm 2 mps 755 mmHg 98%
    08:00 +9°C° 2.5 mm 3 mps 753 mmHg 98%
    09:00 +10°C° 2.5 mm 3 mps 752 mmHg 97%
    10:00 +10°C° 2.5 mm 3 mps 751 mmHg 97%
    11:00 +11°C° 0.1 mm 4 mps 749 mmHg 96%
    12:00 +12°C° 0.1 mm 4 mps 748 mmHg 95%
    13:00 +13°C° 0.1 mm 4 mps 746 mmHg 95%
    14:00 +14°C° 0.2 mm 5 mps 745 mmHg 87%
    15:00 +16°C° 0.2 mm 6 mps 744 mmHg 79%
    16:00 +17°C° 0.2 mm 7 mps 743 mmHg 71%
    17:00 +15°C° 0.1 mm 8 mps 744 mmHg 66%
    18:00 +11°C° 0.1 mm 8 mps 745 mmHg 61%
    19:00 +8°C° 0.1 mm 9 mps 747 mmHg 55%
    20:00 +7°C° 0 mm 9 mps 747 mmHg 55%
    21:00 +6°C° 0 mm 8 mps 748 mmHg 55%
    22:00 +5°C° 0 mm 8 mps 748 mmHg 55%
    23:00 +3°C° 0 mm 9 mps 749 mmHg 54%

    Day after tomorrow, 25 February, Monday

    Time Temperature Precipitation Wind Pressure Humidity
    00:00 +2°C° 0 mm 9 mps 750 mmHg 52%
    01:00 +2°C° 0 mm 9 mps 751 mmHg 50%
    02:00 +1°C° 0 mm 9 mps 751 mmHg 50%
    03:00 0°C° 0 mm 9 mps 752 mmHg 50%
    04:00 -1°C° 0 mm 9 mps 752 mmHg 50%
    05:00 -3°C° 0 mm 9 mps 753 mmHg 48%
    06:00 -2°C° 0 mm 8 mps 754 mmHg 47%
    07:00 -4°C° 0 mm 8 mps 755 mmHg 46%
    08:00 -3°C° 0 mm 9 mps 756 mmHg 42%
    09:00 -3°C° 0 mm 10 mps 757 mmHg 39%
    10:00 -2°C° 0 mm 10 mps 758 mmHg 36%
    11:00 -2°C° 0 mm 10 mps 759 mmHg 35%
    12:00 0°C° 0 mm 10 mps 759 mmHg 33%
    13:00 0°C° 0 mm 10 mps 760 mmHg 32%
    14:00 0°C° 0 mm 9 mps 760 mmHg 31%
    15:00 0°C° 0 mm 9 mps 761 mmHg 31%
    16:00 0°C° 0 mm 9 mps 761 mmHg 30%
    17:00 -1°C° 0 mm 8 mps 763 mmHg 32%
    18:00 -2°C° 0 mm 7 mps 764 mmHg 34%
    19:00 -3°C° 0 mm 6 mps 765 mmHg 36%
    20:00 -3°C° 0 mm 6 mps 765 mmHg 36%
    21:00 -4°C° 0 mm 6 mps 766 mmHg 37%
    22:00 -4°C° 0 mm 6 mps 767 mmHg 37%
    23:00 -5°C° 0 mm 6 mps 767 mmHg 37%

    26 February, Tuesday

    Time Temperature Precipitation Wind Pressure Humidity
    00:00 -5°C° 0 mm 6 mps 767 mmHg 37%
    01:00 -5°C° 0 mm 5 mps 768 mmHg 36%
    02:00 -5°C° 0 mm 5 mps 768 mmHg 37%
    03:00 -6°C° 0 mm 5 mps 768 mmHg 37%
    04:00 -6°C° 0 mm 5 mps 769 mmHg 37%
    05:00 -6°C° 0 mm 5 mps 769 mmHg 37%
    06:00 -5°C° 0 mm 4 mps 770 mmHg 38%
    07:00 -5°C° 0 mm 4 mps 770 mmHg 39%
    08:00 -5°C° 0 mm 5 mps 771 mmHg 36%
    09:00 -5°C° 0 mm 5 mps 771 mmHg 34%
    10:00 -4°C° 0 mm 5 mps 771 mmHg 32%
    11:00 -2°C° 0 mm 5 mps 771 mmHg 29%
    12:00 -3°C° 0 mm 6 mps 771 mmHg 26%
    13:00 -2°C° 0 mm 6 mps 771 mmHg 23%
    14:00 -2°C° 0 mm 6 mps 771 mmHg 22%
    15:00 -1°C° 0 mm 5 mps 771 mmHg 22%
    16:00 -1°C° 0 mm 5 mps 771 mmHg 21%
    17:00 -2°C° 0 mm 4 mps 772 mmHg 23%
    18:00 -2°C° 0 mm 4 mps 772 mmHg 25%
    19:00 -2°C° 0 mm 3 mps 773 mmHg 27%
    20:00 -4°C° 0 mm 3 mps 773 mmHg 29%
    21:00 -4°C° 0 mm 3 mps 773 mmHg 30%
    22:00 -4°C° 0 mm 3 mps 774 mmHg 31%
    23:00 -5°C° 0 mm 3 mps 773 mmHg 32%

    27 February, Wednesday

    Time Temperature Precipitation Wind Pressure Humidity
    00:00 -4°C° 0 mm 2 mps 773 mmHg 33%
    01:00 -4°C° 0 mm 2 mps 773 mmHg 34%
    02:00 -5°C° 0 mm 2 mps 773 mmHg 34%
    03:00 -3°C° 0 mm 1 mps 773 mmHg 34%
    04:00 -3°C° 0 mm 1 mps 773 mmHg 34%
    05:00 -3°C° 0 mm 1 mps 773 mmHg 33%
    06:00 -2°C° 0 mm 1 mps 773 mmHg 32%
    07:00 -2°C° 0 mm 1 mps 773 mmHg 31%
    08:00 -1°C° 0 mm 1 mps 772 mmHg 29%
    09:00 -3°C° 0 mm 2 mps 772 mmHg 27%
    10:00 -2°C° 0 mm 2 mps 771 mmHg 24%
    11:00 +1°C° 0 mm 2 mps 770 mmHg 26%
    12:00 +1°C° 0 mm 3 mps 769 mmHg 27%
    13:00 +3°C° 0 mm 4 mps 768 mmHg 28%
    14:00 +3°C° 0 mm 4 mps 766 mmHg 35%
    15:00 +4°C° 0 mm 4 mps 765 mmHg 42%
    16:00 +4°C° 0 mm 4 mps 763 mmHg 49%
    17:00 +3°C° 0 mm 3 mps 762 mmHg 58%
    18:00 +2°C° 0 mm 3 mps 762 mmHg 67%
    19:00 +2°C° 0 mm 2 mps 761 mmHg 77%
    20:00 +3°C° 0 mm 2 mps 761 mmHg 80%
    21:00 +3°C° 0 mm 3 mps 760 mmHg 84%
    22:00 +3°C° 0 mm 3 mps 760 mmHg 87%
    23:00 +4°C° 0 mm 3 mps 760 mmHg 85%

    28 February, Thursday

    Time Temperature Precipitation Wind Pressure Humidity
    00:00 +4°C° 0 mm 3 mps 760 mmHg 84%
    01:00 +4°C° 0 mm 3 mps 760 mmHg 82%
    02:00 +4°C° 0 mm 3 mps 760 mmHg 83%
    03:00 +3°C° 0 mm 3 mps 761 mmHg 83%
    04:00 +2°C° 0 mm 3 mps 761 mmHg 84%
    05:00 +1°C° 0 mm 3 mps 762 mmHg 80%
    06:00 0°C° 0 mm 3 mps 762 mmHg 77%
    07:00 -1°C° 0 mm 2 mps 763 mmHg 73%
    08:00 +1°C° 0 mm 2 mps 763 mmHg 65%
    09:00 +1°C° 0 mm 3 mps 764 mmHg 56%
    10:00 +2°C° 0 mm 3 mps 764 mmHg 47%
    11:00 +4°C° 0 mm 2 mps 764 mmHg 43%
    12:00 +5°C° 0 mm 2 mps 764 mmHg 38%
    13:00 +8°C° 0 mm 1 mps 763 mmHg 34%
    14:00 +8°C° 0 mm 1 mps 763 mmHg 34%
    15:00 +8°C° 0 mm 1 mps 763 mmHg 35%
    16:00 +7°C° 0 mm 2 mps 762 mmHg 35%
    17:00 +6°C° 0 mm 2 mps 762 mmHg 43%
    18:00 +5°C° 0 mm 2 mps 763 mmHg 50%
    19:00 +2°C° 0 mm 3 mps 763 mmHg 58%
    20:00 +2°C° 0 mm 3 mps 763 mmHg 60%
    21:00 +2°C° 0 mm 3 mps 762 mmHg 63%
    22:00 +1°C° 0 mm 3 mps 762 mmHg 65%
    23:00 +2°C° 0.1 mm 2 mps 762 mmHg 67%
    Show more